Skagway, AK

2:32 PM AKDT on May 25, 2017 (GMT -0800)
Skagway

Weather History for PAGY - October, 2011

Change the Weather History Date:

Thursday, October 27, 2011

  Actual Average Record
Temperature  
Mean Temperature 42 °F -  
Max Temperature 45 °F 41 °F 55 °F (1965)
Min Temperature 37 °F 32 °F 12 °F (1971)
Degree Days  
Heating Degree Days 23    
Moisture  
Dew Point 37 °F    
Average Humidity 85    
Maximum Humidity 100    
Minimum Humidity 68    
Precipitation  
Precipitation 0.04 in - - ()
Sea Level Pressure  
Sea Level Pressure 29.71 in    
Wind  
Wind Speed 18 mph (SSW)    
Max Wind Speed 30 mph    
Max Gust Speed 38 mph    
Visibility 10 miles    
Events Rain    
Averages and records for this station are not official NWS values.
T = Trace of Precipitation, MM = Missing Value Source: NWS Daily Summary

Daily Weather History Graph

Daily Weather History Graph

Search for Another Location

Airport or City:

Trip Planner

Search our weather history database for the weather conditions in past years. The results will help you decide how hot, cold, wet, or windy it might be!

Date:

Astronomy

Oct. 27, 2011 Rise Set
Actual Time 8:08 AM AKDT 5:20 PM AKDT
Civil Twilight 7:25 AM AKDT 6:03 PM AKDT
Nautical Twilight 6:37 AM AKDT 6:51 PM AKDT
Astronomical Twilight 5:49 AM AKDT 7:39 PM AKDT
Moon 9:58 AM AKDT (10/27) 5:15 PM AKDT (10/27)
Length of Visible Light 10h 38m
Length of Day
9h 12m
New Moon, 2% of the Moon is Illuminated
Oct 27
New Moon
Nov 2
First Quarter
Nov 10
Full
Nov 18
Last Quarter
Nov 24
New

Hourly Weather History & Observations

Time (AKDT) Temp. Windchill Dew Point Humidity Pressure Visibility Wind Dir Wind Speed Gust Speed Precip Events Conditions
12:53 AM 45.0 °F 35.2 °F 35.1 °F 68% 29.74 in 10.0 mi SSW 29.9 mph 38.0 mph N/A   Overcast
1:53 AM 44.1 °F 34.6 °F 36.0 °F 73% 29.76 in 10.0 mi SSW 26.5 mph 36.8 mph N/A   Overcast
2:53 AM 44.6 °F 35.3 °F 35.6 °F 71% 29.78 in 10.0 mi SSW 26.5 mph 36.8 mph N/A   Overcast
3:53 AM 44.1 °F 35.0 °F 36.0 °F 73% 29.80 in 10.0 mi SSW 24.2 mph 33.4 mph N/A   Mostly Cloudy
4:53 AM 44.1 °F 36.2 °F 37.0 °F 76% 29.81 in 10.0 mi SSW 18.4 mph 33.4 mph N/A   Overcast
5:53 AM 44.1 °F 34.6 °F 36.0 °F 73% 29.80 in 10.0 mi SSW 26.5 mph 34.5 mph N/A   Overcast
6:53 AM 44.1 °F 36.5 °F 37.0 °F 76% 29.80 in 10.0 mi South 17.3 mph 28.8 mph N/A   Overcast
7:53 AM 43.0 °F 33.3 °F 37.9 °F 82% 29.81 in 10.0 mi SSW 25.3 mph 32.2 mph 0.00 in Rain Light Rain
8:53 AM 43.0 °F 32.9 °F 37.9 °F 82% 29.80 in 10.0 mi SSW 27.6 mph 36.8 mph 0.00 in   Overcast
9:53 AM 44.1 °F 34.2 °F 37.0 °F 76% 29.79 in 10.0 mi SSW 28.8 mph 38.0 mph N/A   Scattered Clouds
10:53 AM 44.1 °F 34.6 °F 37.0 °F 76% 29.80 in 10.0 mi SSW 26.5 mph 38.0 mph N/A   Scattered Clouds
11:53 AM 45.0 °F 36.0 °F 36.0 °F 71% 29.80 in 10.0 mi SSW 25.3 mph 34.5 mph N/A   Scattered Clouds
12:53 PM 44.1 °F 35.0 °F 36.0 °F 73% 29.80 in 10.0 mi SSW 24.2 mph 32.2 mph N/A   Scattered Clouds
1:53 PM 43.0 °F 33.5 °F 36.0 °F 76% 29.78 in 10.0 mi SSW 24.2 mph 31.1 mph N/A   Mostly Cloudy
2:53 PM 42.1 °F 33.1 °F 37.9 °F 85% 29.78 in 10.0 mi SSW 20.7 mph - 0.00 in Rain Light Rain
3:53 PM 42.1 °F 34.2 °F 37.9 °F 85% 29.75 in 10.0 mi SSW 16.1 mph 24.2 mph 0.00 in   Mostly Cloudy
4:53 PM 42.1 °F 37.1 °F 37.0 °F 82% 29.73 in 10.0 mi South 8.1 mph 19.6 mph 0.00 in   Overcast
5:53 PM 42.1 °F 40.2 °F 37.0 °F 82% 29.71 in 10.0 mi South 3.5 mph - 0.00 in   Overcast
6:53 PM 41.0 °F - 39.0 °F 93% 29.69 in 8.0 mi Calm Calm - 0.01 in Rain Light Rain
7:12 PM 41.0 °F - 39.2 °F 93% 29.68 in 8.0 mi Calm Calm - 0.01 in Rain Light Rain
7:35 PM 39.2 °F - 39.2 °F 100% 29.67 in 9.0 mi Calm Calm - 0.01 in Rain Light Rain
7:53 PM 39.9 °F - 39.0 °F 97% 29.66 in 9.0 mi Calm Calm - 0.02 in Rain Light Rain
8:00 PM 39.2 °F - 39.2 °F 100% 29.65 in 10.0 mi Calm Calm - 0.00 in Rain Light Rain
8:16 PM 39.2 °F - 39.2 °F 100% 29.65 in 10.0 mi Calm Calm - 0.00 in Rain Light Rain
8:53 PM 39.9 °F - 39.0 °F 97% 29.62 in 10.0 mi Calm Calm - 0.01 in   Overcast
9:21 PM 39.2 °F 37.0 °F 37.4 °F 93% 29.61 in 10.0 mi NNW 3.5 mph - N/A   Overcast
9:53 PM 39.0 °F - 37.9 °F 96% 29.59 in 10.0 mi Calm Calm - 0.00 in   Overcast
10:03 PM 39.2 °F 37.0 °F 37.4 °F 93% 29.59 in 10.0 mi NE 3.5 mph - N/A   Overcast
10:53 PM 39.0 °F - 37.0 °F 93% 29.55 in 10.0 mi Calm Calm - N/A   Overcast
11:02 PM 39.2 °F - 37.4 °F 93% 29.54 in 10.0 mi Calm Calm - N/A   Overcast
11:09 PM 39.2 °F - 37.4 °F 93% 29.53 in 10.0 mi Calm Calm - N/A   Overcast
11:53 PM 37.9 °F 34.4 °F 37.0 °F 97% 29.49 in 10.0 mi NNE 4.6 mph - N/A   Overcast